Flag for Germany Weather past 2 weeks in Herzogenrath, North Rhine-Westphalia, Germany

Now
61 °F

Broken clouds.


Feels Like: 61 °F
Forecast: 51 / 59 °F
Wind: 16 mph from Southwest

Location: Geilenkirchen Airport

Current Time: Sep 4, 2015 at 3:31:16 PM

Latest Report: Sep 4, 2015 at 2:50 PM


Visibility: N/A

Pressure: 29.98 "Hg

Humidity: 63%

Dew point: 48 °F

Location of HerzogenrathLocation

Historic Weather in Herzogenrath — Graph

°F

Herzogenrath temperature yesterday

Maximum temperature yesterday: 64 °F (at 3:50 PM)
Minimum temperature yesterday: 52 °F (at 5:50 AM)
Average temperature yesterday: 57 °F

Past Weeks' High & Low Weather Summary

 TemperatureHumidityPressure
High90 °F (Aug 31, 3:50 PM)100% (Aug 24, 4:50 AM)30.24 "Hg (Aug 24, 4:50 AM)
Low52 °F (Sep 2, 4:50 AM)33% (Aug 31, 3:50 PM)29.53 "Hg (Aug 24, 2:50 PM)
Average64 °F75%29.93 "Hg
* Reported Aug 20 2:50 PM — Sep 4 1:50 PM, Herzogenrath, Weather by CustomWeather, © 2015

Note: Actual official high and low records may vary slightly from our data, if they occured in-between our weather recording intervals... More about our weather records

Advertising

Herzogenrath weather history for previous 24 hours

 ConditionsComfort  
Time TempWeatherWind HumidityBarometerVisibility
1:50 PM
Fri, Sep 4
61 °FBroken clouds.16 mph63%29.98 "HgN/A
12:50 PM59 °FBroken clouds.15 mph68%29.98 "HgN/A
11:50 AM59 °FBroken clouds.14 mph68%29.98 "HgN/A
10:50 AM57 °FPartly sunny.12 mph72%29.98 "HgN/A
9:50 AM55 °FPartly sunny.10 mph77%29.98 "HgN/A
8:50 AM54 °FSunny.9 mph82%29.98 "Hg10 mi
7:50 AM52 °FClear.8 mph88%29.98 "Hg10 mi
6:50 AM52 °FPassing clouds.7 mph88%29.98 "HgN/A
5:50 AM52 °FClear.8 mph88%29.95 "Hg10 mi
4:50 AM52 °FPassing clouds.6 mph88%29.98 "HgN/A
3:50 AM54 °FPartly cloudy.6 mph88%29.98 "HgN/A
2:50 AM54 °FPartly cloudy.6 mph88%29.98 "HgN/A
1:50 AM54 °FLight rain. Partly cloudy.6 mph88%29.98 "HgN/A
12:50 AM54 °FClear.7 mph88%29.98 "Hg10 mi
11:50 PM
Thu, Sep 3
55 °FClear.6 mph82%29.98 "Hg10 mi
10:50 PM55 °FLight rain. Passing clouds.5 mph82%29.98 "HgN/A
9:50 PM54 °FClear.6 mph88%29.98 "Hg10 mi
8:50 PM55 °FSunny.3 mph82%29.98 "Hg10 mi
7:50 PM57 °FSunny.3 mph82%29.95 "Hg10 mi
6:50 PM57 °FBroken clouds.6 mph82%29.98 "HgN/A
5:50 PM55 °FBroken clouds.2 mph82%29.98 "HgN/A
4:50 PM63 °FScattered showers. Partly sunny.10 mph59%29.95 "HgN/A
3:50 PM64 °FPassing clouds.15 mph56%29.95 "HgN/A
Weather by CustomWeather, © 2015

See weather overviewHow to use our weather pages